Location: Unspecified
(0.0000°N, 0.0000°E)
Time: 05:49:58
(UTC+00:00)

Tiangong 2 - Pass Details

Date: 21 October 2017
Orbit: 388 x 391 km, 42.8° (Epoch: 23 October)

Event Time Altitude Azimuth Distance (km) Brightness Sun altitude
Rises 18:50:05 0° 208° (SSW) 2,265 5.6 -16.1°
Reaches altitude 10° 18:52:21 10° 196° (SSW) 1,409 4.3 -16.6°
Enters shadow 18:54:51 27° 145° (SE) 782 2.4 -17.2°
